This is the latest recevied weather packets stored in our database for station/object G1SCQ. If no packets are shown the sender has not sent any weather packets the latest 10 day(s).
| Time | Temp. | Humidity | Pressure | Rain* | Wind** | Luminosity | Snow |
|---|---|---|---|---|---|---|---|
| 1777559225 | 21.11° C | 30% | 1023.2 hPa | 0 mm | - | 544 W/m² | - |
| 1777558685 | 21.11° C | 31% | 1023.3 hPa | 0 mm | - | 557 W/m² | - |
| 1777558145 | 21.11° C | 32% | 1023.2 hPa | 0 mm | - | 568 W/m² | - |
| 1777557605 | 21.11° C | 32% | 1023.5 hPa | 0 mm | - | 576 W/m² | - |
| 1777557245 | 20.56° C | 32% | 1023.4 hPa | 0 mm | - | 586 W/m² | - |
| 1777556705 | 20.56° C | 30% | 1023.5 hPa | 0 mm | - | 593 W/m² | - |
| 1777556165 | 21.11° C | 32% | 1023.6 hPa | 0 mm | - | 602 W/m² | - |
| 1777555625 | 21.67° C | 32% | 1024.1 hPa | 0 mm | - | 609 W/m² | - |
| 1777555085 | 20.56° C | 33% | 1023.6 hPa | 0 mm | - | 615 W/m² | - |
| 1777554545 | 20° C | 33% | 1024.1 hPa | 0 mm | - | 621 W/m² | - |
| 1777554005 | 20.56° C | 32% | 1024.2 hPa | 0 mm | - | 622 W/m² | - |
| 1777553645 | 20.56° C | 34% | 1024.1 hPa | 0 mm | - | 627 W/m² | - |
| 1777553105 | 20.56° C | 34% | 1024 hPa | 0 mm | - | 628 W/m² | - |
| 1777552565 | 20.56° C | 34% | 1024 hPa | 0 mm | - | 631 W/m² | - |
| 1777552025 | 20.56° C | 36% | 1024.2 hPa | 0 mm | - | 632 W/m² | - |
| 1777551485 | 20° C | 36% | 1024.2 hPa | 0 mm | - | 632 W/m² | - |
| 1777550945 | 20.56° C | 36% | 1024.4 hPa | 0 mm | - | 631 W/m² | - |
| 1777550405 | 20° C | 38% | 1024.1 hPa | 0 mm | - | 631 W/m² | - |
| 1777550045 | 20° C | 40% | 1024.3 hPa | 0 mm | - | 628 W/m² | - |
| 1777549505 | 19.44° C | 40% | 1024.4 hPa | 0 mm | - | 626 W/m² | - |
| 1777548965 | 20° C | 41% | 1024.4 hPa | 0 mm | - | 622 W/m² | - |
| 1777548425 | 18.89° C | 41% | 1024.6 hPa | 0 mm | - | 617 W/m² | - |
| 1777547885 | 18.89° C | 42% | 1024.6 hPa | 0 mm | - | 611 W/m² | - |
| 1777547345 | 18.89° C | 44% | 1024.9 hPa | 0 mm | - | 601 W/m² | - |
| 1777546804 | 18.33° C | 44% | 1024.7 hPa | 0 mm | - | 592 W/m² | - |
* Rain latest hour (hover to see other rain measurements)
** Current wind speed in m/s (hover to see current wind gust speed)